CCA4125 ZBAA-ZULS

Flight info

Callsign CCA4125
Flight time 4h 10m
Altitude 32100
Route BOTPU6J BOTPU W47 IPNON/K0848S1040 W47 LOVRA W276 ANRUG W279 ONEBA G212 JTG W236 CTU B213 LXA
Aircraft A319/M-SDE3FGHIRWY/LB1

Departure

Time 2026-05-08 10:06
Airport Beijing Capital International Airport (ZBAA)

Arrival

Time 2026-05-08 14:17
Airport Lhasa Gonggar International Airport (ZULS)
Time Latitude Longitude Altitude Speed Heading
2026-05-08 09:49 40.07864 116.60200 119 ft 0 kts 203°
2026-05-08 09:58 40.07873 116.60205 121 ft 2 kts 203°
2026-05-08 09:58 40.07888 116.60214 120 ft 2 kts 203°
2026-05-08 09:58 40.07903 116.60222 122 ft 2 kts 204°
2026-05-08 09:59 40.07918 116.60231 120 ft 2 kts 204°
2026-05-08 09:59 40.07932 116.60241 122 ft 2 kts 233°
2026-05-08 09:59 40.07940 116.60259 119 ft 2 kts 263°
2026-05-08 09:59 40.07938 116.60275 121 ft 0 kts 294°
2026-05-08 10:00 40.07939 116.60274 124 ft 1 kts 294°
2026-05-08 10:00 40.07958 116.60217 124 ft 13 kts 294°
2026-05-08 10:00 40.08002 116.60069 124 ft 19 kts 273°
2026-05-08 10:01 40.07992 116.59898 124 ft 18 kts 286°
2026-05-08 10:01 40.08090 116.59852 122 ft 15 kts 353°
2026-05-08 10:01 40.08198 116.59835 122 ft 16 kts 353°
2026-05-08 10:01 40.08309 116.59818 122 ft 16 kts 353°
2026-05-08 10:02 40.08432 116.59799 122 ft 20 kts 353°
2026-05-08 10:02 40.08573 116.59777 124 ft 20 kts 353°
2026-05-08 10:02 40.08712 116.59755 123 ft 20 kts 353°
2026-05-08 10:02 40.08847 116.59734 123 ft 19 kts 353°
2026-05-08 10:03 40.08970 116.59700 123 ft 14 kts 315°
2026-05-08 10:03 40.08979 116.59648 124 ft 0 kts 265°
2026-05-08 10:03 40.08979 116.59642 124 ft 1 kts 265°
2026-05-08 10:03 40.08976 116.59610 124 ft 7 kts 263°
2026-05-08 10:04 40.08940 116.59525 124 ft 14 kts 223°
2026-05-08 10:04 40.08841 116.59499 122 ft 15 kts 172°
2026-05-08 10:04 40.08826 116.59502 123 ft 2 kts 172°
2026-05-08 10:04 40.08802 116.59506 123 ft 0 kts 172°
2026-05-08 10:05 40.08765 116.59513 124 ft 24 kts 172°
2026-05-08 10:05 40.08362 116.59575 122 ft 89 kts 173°
2026-05-08 10:06 40.07561 116.59700 123 ft 141 kts 173°
2026-05-08 10:06 40.06463 116.59873 314 ft 165 kts 174°
2026-05-08 10:06 40.05328 116.60042 891 ft 164 kts 175°
2026-05-08 10:06 40.04175 116.60215 1447 ft 171 kts 175°
2026-05-08 10:07 40.02918 116.60411 1740 ft 193 kts 174°
2026-05-08 10:07 40.01515 116.60632 2029 ft 218 kts 174°
2026-05-08 10:07 39.99931 116.60880 2450 ft 241 kts 174°
2026-05-08 10:07 39.98233 116.61145 3182 ft 249 kts 174°
2026-05-08 10:08 39.96502 116.61417 4060 ft 252 kts 174°
2026-05-08 10:08 39.94754 116.61691 4947 ft 254 kts 175°
2026-05-08 10:08 39.92987 116.61968 5792 ft 257 kts 175°
2026-05-08 10:08 39.91195 116.62250 6609 ft 261 kts 175°
2026-05-08 10:09 39.89367 116.62537 7329 ft 268 kts 176°
2026-05-08 10:09 39.87487 116.62830 8008 ft 276 kts 176°
2026-05-08 10:09 39.85548 116.63130 8677 ft 285 kts 177°
2026-05-08 10:09 39.83552 116.63436 9340 ft 293 kts 177°
2026-05-08 10:10 39.81495 116.63751 9998 ft 301 kts 178°
2026-05-08 10:10 39.80060 116.63969 10241 ft 314 kts 178°
2026-05-08 10:10 39.77038 116.64417 10509 ft 345 kts 177°
2026-05-08 10:10 39.75420 116.64658 10617 ft 361 kts 177°
2026-05-08 10:11 39.72853 116.64753 10753 ft 377 kts 191°
2026-05-08 10:11 39.70311 116.63851 11170 ft 380 kts 208°
2026-05-08 10:11 39.68099 116.62027 11742 ft 377 kts 226°
2026-05-08 10:11 39.66406 116.59470 12339 ft 373 kts 243°
2026-05-08 10:12 39.65372 116.56406 12923 ft 370 kts 260°
2026-05-08 10:12 39.65014 116.53121 13536 ft 369 kts 269°
2026-05-08 10:12 39.64807 116.49785 14128 ft 373 kts 270°
2026-05-08 10:12 39.64596 116.46422 14711 ft 376 kts 270°
2026-05-08 10:13 39.64381 116.43035 15297 ft 378 kts 270°
2026-05-08 10:13 39.64164 116.39615 15868 ft 382 kts 270°
2026-05-08 10:13 39.63940 116.36175 16439 ft 385 kts 270°
2026-05-08 10:13 39.63710 116.32697 17028 ft 387 kts 270°
2026-05-08 10:14 39.63475 116.29208 17573 ft 390 kts 270°
2026-05-08 10:14 39.63240 116.25684 18096 ft 393 kts 270°
2026-05-08 10:14 39.63005 116.22141 18577 ft 395 kts 269°
2026-05-08 10:14 39.62772 116.18626 19040 ft 397 kts 269°
2026-05-08 10:15 39.62533 116.15047 19495 ft 399 kts 269°
2026-05-08 10:15 39.62291 116.11442 19942 ft 402 kts 269°
2026-05-08 10:15 39.62047 116.07826 20380 ft 404 kts 269°
2026-05-08 10:15 39.61801 116.04179 20805 ft 406 kts 269°
2026-05-08 10:16 39.61553 116.00506 21215 ft 408 kts 269°
2026-05-08 10:16 39.61301 115.96830 21617 ft 411 kts 269°
2026-05-08 10:16 39.61044 115.93120 22003 ft 413 kts 269°
2026-05-08 10:16 39.60787 115.89400 22363 ft 416 kts 269°
2026-05-08 10:17 39.60787 115.85657 22690 ft 415 kts 278°
2026-05-08 10:17 39.61275 115.81971 23063 ft 414 kts 287°
2026-05-08 10:17 39.62224 115.78454 23446 ft 414 kts 296°
2026-05-08 10:17 39.63531 115.75179 23757 ft 415 kts 300°
2026-05-08 10:18 39.64904 115.71880 24079 ft 416 kts 300°
2026-05-08 10:18 39.66399 115.68656 24419 ft 417 kts 307°
2026-05-08 10:18 39.68288 115.65800 24720 ft 417 kts 316°
2026-05-08 10:18 39.70530 115.63416 25015 ft 418 kts 325°
2026-05-08 10:19 39.73078 115.61563 25226 ft 422 kts 335°
2026-05-08 10:19 39.75791 115.60072 25466 ft 424 kts 335°
2026-05-08 10:19 39.78516 115.58582 25741 ft 426 kts 335°
2026-05-08 10:20 39.83992 115.55568 26291 ft 429 kts 335°
2026-05-08 10:20 39.86746 115.54043 26576 ft 430 kts 335°
2026-05-08 10:20 39.89501 115.52517 26852 ft 431 kts 335°
2026-05-08 10:20 39.92213 115.50884 27258 ft 428 kts 329°
2026-05-08 10:21 39.94607 115.48630 27713 ft 424 kts 317°
2026-05-08 10:21 39.96565 115.45772 28132 ft 423 kts 306°
2026-05-08 10:21 39.97991 115.42487 28550 ft 423 kts 295°
2026-05-08 10:21 39.98874 115.38819 28964 ft 426 kts 284°
2026-05-08 10:22 39.99198 115.34961 29380 ft 429 kts 278°
2026-05-08 10:22 39.99401 115.31088 29800 ft 427 kts 277°
2026-05-08 10:22 39.99595 115.27236 30268 ft 423 kts 277°
2026-05-08 10:22 39.99787 115.23417 30672 ft 421 kts 277°
2026-05-08 10:23 39.99976 115.19620 31032 ft 418 kts 278°
2026-05-08 10:23 40.00164 115.15838 31395 ft 417 kts 278°
2026-05-08 10:23 40.00353 115.12072 31718 ft 415 kts 277°
2026-05-08 10:23 40.00542 115.08323 31961 ft 414 kts 277°
2026-05-08 10:24 40.00731 115.04577 32028 ft 414 kts 277°
2026-05-08 10:24 40.01104 114.97084 32014 ft 414 kts 277°
2026-05-08 10:25 40.01472 114.89589 32014 ft 414 kts 277°
2026-05-08 10:25 40.01827 114.82090 32026 ft 414 kts 277°
2026-05-08 10:26 40.02168 114.74591 32006 ft 414 kts 277°
2026-05-08 10:26 40.02517 114.67154 31999 ft 413 kts 277°
2026-05-08 10:27 40.02865 114.59669 31976 ft 413 kts 277°
2026-05-08 10:27 40.03203 114.52178 31975 ft 413 kts 277°
2026-05-08 10:28 40.03532 114.44694 31970 ft 413 kts 277°
2026-05-08 10:28 40.03861 114.37205 31945 ft 413 kts 277°
2026-05-08 10:29 40.04193 114.29710 31953 ft 414 kts 276°
2026-05-08 10:29 40.04514 114.22209 31955 ft 414 kts 276°
2026-05-08 10:30 40.04825 114.14706 31960 ft 414 kts 276°
2026-05-08 10:30 40.05273 114.07215 31966 ft 414 kts 279°
2026-05-08 10:31 40.05879 113.99744 31960 ft 414 kts 279°
2026-05-08 10:31 40.06473 113.92274 31962 ft 414 kts 278°
2026-05-08 10:32 40.07026 113.84789 31955 ft 415 kts 278°
2026-05-08 10:32 40.07559 113.77284 31963 ft 415 kts 278°
2026-05-08 10:33 40.08083 113.69784 31964 ft 415 kts 278°
2026-05-08 10:33 40.08610 113.62274 31967 ft 415 kts 278°
2026-05-08 10:34 40.09132 113.54769 31969 ft 415 kts 278°
2026-05-08 10:34 40.09653 113.47253 31969 ft 416 kts 278°
2026-05-08 10:35 40.10173 113.39729 31958 ft 416 kts 277°
2026-05-08 10:35 40.10683 113.32230 31973 ft 416 kts 277°
2026-05-08 10:36 40.11184 113.24692 31974 ft 417 kts 277°
2026-05-08 10:36 40.11687 113.17150 31987 ft 417 kts 277°
2026-05-08 10:37 40.12187 113.09606 31980 ft 417 kts 277°
2026-05-08 10:37 40.12681 113.02054 31985 ft 417 kts 277°
2026-05-08 10:38 40.13166 112.94495 31996 ft 418 kts 277°
2026-05-08 10:38 40.13645 112.86918 31998 ft 418 kts 277°
2026-05-08 10:39 40.14120 112.79351 32012 ft 418 kts 277°
2026-05-08 10:39 40.14598 112.71778 32004 ft 418 kts 277°
2026-05-08 10:40 40.15067 112.64183 32019 ft 419 kts 277°
2026-05-08 10:40 40.15526 112.56629 32019 ft 419 kts 277°
2026-05-08 10:41 40.15948 112.48968 32008 ft 421 kts 272°
2026-05-08 10:41 40.15057 112.41429 32011 ft 428 kts 255°
2026-05-08 10:42 40.13023 112.34097 32023 ft 429 kts 253°
2026-05-08 10:42 40.10980 112.26763 32027 ft 429 kts 253°
2026-05-08 10:43 40.08934 112.19432 32031 ft 429 kts 253°
2026-05-08 10:43 40.06889 112.12101 32034 ft 429 kts 253°
2026-05-08 10:44 40.04836 112.04769 32033 ft 429 kts 253°
2026-05-08 10:44 40.02770 111.97453 32024 ft 429 kts 253°
2026-05-08 10:45 40.00707 111.90163 32019 ft 429 kts 253°
2026-05-08 10:45 39.97812 111.83296 32029 ft 439 kts 236°
2026-05-08 10:46 39.93329 111.77774 32036 ft 446 kts 224°
2026-05-08 10:46 39.88581 111.72639 32022 ft 446 kts 224°
2026-05-08 10:47 39.83819 111.67463 32028 ft 446 kts 224°
2026-05-08 10:47 39.79049 111.62302 32036 ft 446 kts 224°
2026-05-08 10:48 39.74257 111.57136 32043 ft 447 kts 224°
2026-05-08 10:48 39.69472 111.51996 32021 ft 446 kts 225°
2026-05-08 10:49 39.65113 111.47324 32044 ft 445 kts 225°
2026-05-08 10:49 39.60350 111.42209 32048 ft 444 kts 225°
2026-05-08 10:50 39.55615 111.37138 32037 ft 443 kts 225°
2026-05-08 10:50 39.50858 111.32055 32039 ft 442 kts 225°
2026-05-08 10:51 39.46111 111.26987 32041 ft 441 kts 225°
2026-05-08 10:51 39.41370 111.21938 32051 ft 440 kts 225°
2026-05-08 10:52 39.36636 111.16916 32026 ft 439 kts 225°
2026-05-08 10:52 39.31945 111.11952 32033 ft 438 kts 226°
2026-05-08 10:53 39.27243 111.06973 32042 ft 437 kts 226°
2026-05-08 10:53 39.22545 111.02012 32049 ft 436 kts 226°
2026-05-08 10:54 39.17849 110.97064 32042 ft 436 kts 225°
2026-05-08 10:54 39.12582 110.93002 32042 ft 449 kts 211°
2026-05-08 10:55 39.06875 110.89742 32028 ft 449 kts 211°
2026-05-08 10:55 39.01168 110.86487 32021 ft 448 kts 211°
2026-05-08 10:56 38.95460 110.83234 32000 ft 448 kts 211°
2026-05-08 10:56 38.89766 110.79985 32009 ft 448 kts 211°
2026-05-08 10:57 38.84066 110.76733 32018 ft 448 kts 211°
2026-05-08 10:57 38.76475 110.72434 31996 ft 447 kts 211°
2026-05-08 10:58 38.70813 110.69241 32003 ft 447 kts 211°
2026-05-08 10:58 38.65126 110.66026 32008 ft 446 kts 211°
2026-05-08 10:59 38.59429 110.62810 31985 ft 446 kts 211°
2026-05-08 10:59 38.53751 110.59607 31994 ft 446 kts 212°
2026-05-08 11:00 38.48078 110.56418 32005 ft 445 kts 211°
2026-05-08 11:00 38.42410 110.53237 32014 ft 445 kts 211°
2026-05-08 11:01 38.36739 110.50065 32003 ft 445 kts 211°
2026-05-08 11:01 38.31108 110.46907 32004 ft 444 kts 212°
2026-05-08 11:02 38.22612 110.42155 32021 ft 444 kts 211°
2026-05-08 11:03 38.16940 110.39006 32013 ft 444 kts 212°
2026-05-08 11:03 38.11280 110.35867 32031 ft 443 kts 212°
2026-05-08 11:04 38.05625 110.32730 32035 ft 443 kts 212°
2026-05-08 11:04 37.99983 110.29599 32003 ft 443 kts 211°
2026-05-08 11:05 37.94378 110.26498 32028 ft 442 kts 211°
2026-05-08 11:05 37.88736 110.23378 32041 ft 442 kts 211°
2026-05-08 11:06 37.83100 110.20268 32031 ft 442 kts 211°
2026-05-08 11:06 37.77464 110.17162 32024 ft 442 kts 211°
2026-05-08 11:07 37.71824 110.14065 32038 ft 442 kts 211°
2026-05-08 11:07 37.66186 110.10971 32039 ft 442 kts 211°
2026-05-08 11:08 37.60574 110.07890 32050 ft 442 kts 211°
2026-05-08 11:08 37.54920 110.04793 32036 ft 442 kts 211°
2026-05-08 11:09 37.49263 110.01711 32057 ft 443 kts 211°
2026-05-08 11:09 37.46436 110.00173 32162 ft 444 kts 211°
2026-05-08 11:09 37.43609 109.98633 32539 ft 442 kts 211°
2026-05-08 11:09 37.40785 109.97095 32926 ft 441 kts 211°
2026-05-08 11:10 37.37968 109.95563 33249 ft 440 kts 211°
2026-05-08 11:10 37.35152 109.94031 33577 ft 440 kts 212°
2026-05-08 11:10 37.32346 109.92505 33910 ft 439 kts 212°
2026-05-08 11:10 37.29535 109.90980 34075 ft 440 kts 212°
2026-05-08 11:11 37.26729 109.89460 34095 ft 439 kts 212°
2026-05-08 11:11 37.21156 109.86446 34104 ft 438 kts 212°
2026-05-08 11:12 37.15556 109.83421 34101 ft 438 kts 212°
2026-05-08 11:12 37.09953 109.80404 34107 ft 438 kts 212°
2026-05-08 11:13 37.04358 109.77391 34110 ft 437 kts 212°
2026-05-08 11:13 36.98812 109.74402 34108 ft 436 kts 212°
2026-05-08 11:14 36.93238 109.71402 34098 ft 436 kts 212°
2026-05-08 11:14 36.87658 109.68412 34098 ft 437 kts 212°
2026-05-08 11:15 36.82058 109.65414 34105 ft 438 kts 212°
2026-05-08 11:15 36.76449 109.62416 34089 ft 438 kts 212°
2026-05-08 11:16 36.70843 109.59420 34105 ft 439 kts 212°
2026-05-08 11:16 36.65229 109.56415 34109 ft 439 kts 211°
2026-05-08 11:17 36.59645 109.53450 34123 ft 439 kts 211°
2026-05-08 11:17 36.54026 109.50466 34099 ft 439 kts 211°
2026-05-08 11:18 36.48391 109.47483 34112 ft 440 kts 211°
2026-05-08 11:18 36.42756 109.44501 34130 ft 440 kts 211°
2026-05-08 11:19 36.37106 109.41516 34141 ft 441 kts 211°
2026-05-08 11:19 36.31491 109.38548 34123 ft 441 kts 211°
2026-05-08 11:20 36.25838 109.35571 34135 ft 441 kts 211°
2026-05-08 11:20 36.20192 109.32595 34150 ft 441 kts 211°
2026-05-08 11:21 36.14539 109.29618 34159 ft 441 kts 211°
2026-05-08 11:21 36.08882 109.26658 34147 ft 441 kts 210°
2026-05-08 11:22 36.03232 109.23710 34155 ft 441 kts 211°
2026-05-08 11:22 35.97574 109.20752 34159 ft 441 kts 210°
2026-05-08 11:23 35.91955 109.17816 34166 ft 441 kts 210°
2026-05-08 11:23 35.86294 109.14866 34151 ft 441 kts 210°
2026-05-08 11:24 35.80582 109.12036 34164 ft 443 kts 207°
2026-05-08 11:24 35.74751 109.09483 34167 ft 445 kts 206°
2026-05-08 11:25 35.68908 109.06989 34152 ft 445 kts 206°
2026-05-08 11:25 35.63079 109.04430 34165 ft 444 kts 207°
2026-05-08 11:26 35.57293 109.01842 34177 ft 445 kts 207°
2026-05-08 11:26 35.51438 108.99227 34187 ft 445 kts 207°
2026-05-08 11:27 35.45638 108.96664 34176 ft 446 kts 206°
2026-05-08 11:27 35.39792 108.94093 34193 ft 446 kts 206°
2026-05-08 11:28 35.33950 108.91521 34200 ft 447 kts 206°
2026-05-08 11:28 35.28090 108.88939 34207 ft 447 kts 206°
2026-05-08 11:29 35.22224 108.86367 34190 ft 448 kts 206°
2026-05-08 11:29 35.16342 108.83791 34200 ft 448 kts 206°
2026-05-08 11:30 35.10511 108.81232 34205 ft 448 kts 206°
2026-05-08 11:30 35.04640 108.78664 34206 ft 448 kts 206°
2026-05-08 11:31 34.98759 108.76100 34210 ft 448 kts 206°
2026-05-08 11:31 34.92884 108.73532 34206 ft 448 kts 206°
2026-05-08 11:32 34.87007 108.70975 34211 ft 448 kts 206°
2026-05-08 11:32 34.81118 108.68427 34212 ft 449 kts 206°
2026-05-08 11:33 34.75274 108.65889 34182 ft 448 kts 206°
2026-05-08 11:33 34.69399 108.63341 34183 ft 448 kts 206°
2026-05-08 11:34 34.63519 108.60796 34190 ft 448 kts 206°
2026-05-08 11:34 34.57649 108.58261 34184 ft 448 kts 206°
2026-05-08 11:35 34.51773 108.55726 34178 ft 448 kts 205°
2026-05-08 11:35 34.45891 108.53191 34176 ft 449 kts 205°
2026-05-08 11:36 34.40008 108.50659 34175 ft 449 kts 205°
2026-05-08 11:36 34.34113 108.48131 34179 ft 449 kts 205°
2026-05-08 11:37 34.28225 108.45610 34167 ft 449 kts 205°
2026-05-08 11:37 34.22328 108.43081 34180 ft 450 kts 205°
2026-05-08 11:38 34.16472 108.40578 34178 ft 450 kts 205°
2026-05-08 11:38 34.10573 108.38062 34196 ft 450 kts 205°
2026-05-08 11:39 34.04673 108.35550 34203 ft 450 kts 204°
2026-05-08 11:39 33.98759 108.33032 34207 ft 450 kts 204°
2026-05-08 11:40 33.92845 108.30519 34233 ft 450 kts 204°
2026-05-08 11:40 33.86927 108.28011 34235 ft 450 kts 204°
2026-05-08 11:41 33.81043 108.25521 34240 ft 450 kts 204°
2026-05-08 11:41 33.75125 108.23018 34264 ft 451 kts 204°
2026-05-08 11:42 33.69201 108.20514 34267 ft 451 kts 204°
2026-05-08 11:42 33.63269 108.18009 34279 ft 452 kts 204°
2026-05-08 11:43 33.57339 108.15509 34272 ft 452 kts 204°
2026-05-08 11:43 33.51400 108.13012 34274 ft 452 kts 204°
2026-05-08 11:44 33.46469 108.10933 34268 ft 451 kts 204°
2026-05-08 11:44 33.39903 108.07246 34268 ft 442 kts 219°
2026-05-08 11:45 33.35151 108.02654 34254 ft 439 kts 224°
2026-05-08 11:45 33.31238 107.98799 34258 ft 439 kts 224°
2026-05-08 11:46 33.25747 107.93416 34249 ft 438 kts 223°
2026-05-08 11:46 33.21041 107.88782 34249 ft 438 kts 224°
2026-05-08 11:47 33.17108 107.84896 34247 ft 438 kts 224°
2026-05-08 11:47 33.12421 107.80260 34241 ft 437 kts 224°
2026-05-08 11:48 33.07728 107.75642 34250 ft 437 kts 224°
2026-05-08 11:48 33.03032 107.71043 34251 ft 437 kts 224°
2026-05-08 11:49 32.98363 107.66472 34251 ft 437 kts 224°
2026-05-08 11:49 32.93641 107.61841 34245 ft 437 kts 225°
2026-05-08 11:50 32.88982 107.57283 34258 ft 436 kts 225°
2026-05-08 11:50 32.84295 107.52707 34265 ft 436 kts 225°
2026-05-08 11:51 32.79977 107.47759 34266 ft 426 kts 237°
2026-05-08 11:51 32.76543 107.42050 34271 ft 425 kts 239°
2026-05-08 11:52 32.73108 107.36328 34269 ft 425 kts 239°
2026-05-08 11:52 32.69666 107.30612 34265 ft 425 kts 239°
2026-05-08 11:53 32.66220 107.24907 34270 ft 426 kts 239°
2026-05-08 11:53 32.62763 107.19195 34276 ft 426 kts 239°
2026-05-08 11:54 32.59261 107.13510 34274 ft 427 kts 238°
2026-05-08 11:54 32.55731 107.07849 34273 ft 426 kts 238°
2026-05-08 11:55 32.52210 107.02193 34274 ft 426 kts 238°
2026-05-08 11:55 32.48690 106.96545 34278 ft 425 kts 238°
2026-05-08 11:56 32.45182 106.90919 34288 ft 424 kts 238°
2026-05-08 11:56 32.41681 106.85304 34292 ft 423 kts 238°
2026-05-08 11:57 32.38202 106.79735 34291 ft 422 kts 238°
2026-05-08 11:57 32.34703 106.74152 34289 ft 422 kts 238°
2026-05-08 11:58 32.31205 106.68561 34284 ft 422 kts 238°
2026-05-08 11:58 32.27728 106.62980 34270 ft 421 kts 238°
2026-05-08 11:59 32.22505 106.54651 34290 ft 420 kts 238°
2026-05-08 11:59 32.19042 106.49162 34287 ft 419 kts 238°
2026-05-08 12:00 32.15554 106.43641 34280 ft 419 kts 238°
2026-05-08 12:00 32.12064 106.38110 34269 ft 419 kts 238°
2026-05-08 12:01 32.08579 106.32597 34242 ft 420 kts 238°
2026-05-08 12:01 32.05090 106.27086 34273 ft 418 kts 237°
2026-05-08 12:02 32.01607 106.21589 34283 ft 417 kts 237°
2026-05-08 12:02 31.98165 106.16169 34282 ft 415 kts 237°
2026-05-08 12:03 31.94680 106.10686 34282 ft 415 kts 237°
2026-05-08 12:03 31.91243 106.05282 34275 ft 415 kts 237°
2026-05-08 12:04 31.87782 105.99845 34270 ft 414 kts 237°
2026-05-08 12:04 31.84323 105.94422 34256 ft 414 kts 237°
2026-05-08 12:05 31.80862 105.89018 34270 ft 413 kts 237°
2026-05-08 12:05 31.77409 105.83621 34271 ft 413 kts 237°
2026-05-08 12:06 31.73959 105.78237 34265 ft 412 kts 237°
2026-05-08 12:06 31.70512 105.72860 34269 ft 412 kts 237°
2026-05-08 12:07 31.67052 105.67473 34264 ft 412 kts 237°
2026-05-08 12:07 31.63619 105.62142 34255 ft 412 kts 237°
2026-05-08 12:08 31.60165 105.56776 34264 ft 411 kts 237°
2026-05-08 12:08 31.56710 105.51426 34268 ft 411 kts 237°
2026-05-08 12:09 31.53253 105.46087 34270 ft 411 kts 237°
2026-05-08 12:09 31.49799 105.40744 34270 ft 411 kts 237°
2026-05-08 12:10 31.46349 105.35414 34262 ft 411 kts 237°
2026-05-08 12:10 31.42912 105.30117 34261 ft 411 kts 237°
2026-05-08 12:11 31.39511 105.24702 34252 ft 409 kts 239°
2026-05-08 12:11 31.36309 105.19251 34256 ft 409 kts 239°
2026-05-08 12:12 31.33089 105.13758 34257 ft 409 kts 239°
2026-05-08 12:12 31.29838 105.08296 34259 ft 409 kts 239°
2026-05-08 12:13 31.26573 105.02847 34258 ft 409 kts 238°
2026-05-08 12:13 31.23303 104.97406 34263 ft 409 kts 238°
2026-05-08 12:14 31.20029 104.91970 34265 ft 409 kts 238°
2026-05-08 12:14 31.16761 104.86531 34254 ft 409 kts 238°
2026-05-08 12:15 31.13484 104.81103 34255 ft 409 kts 238°
2026-05-08 12:15 31.10210 104.75678 34272 ft 408 kts 238°
2026-05-08 12:16 31.06944 104.70260 34271 ft 408 kts 238°
2026-05-08 12:16 31.03665 104.64853 34267 ft 408 kts 238°
2026-05-08 12:17 31.00288 104.59517 34280 ft 409 kts 237°
2026-05-08 12:17 30.96876 104.54215 34241 ft 409 kts 237°
2026-05-08 12:18 30.93484 104.48910 34272 ft 408 kts 238°
2026-05-08 12:18 30.90114 104.43617 34286 ft 406 kts 238°
2026-05-08 12:19 30.86744 104.38343 34287 ft 405 kts 238°
2026-05-08 12:19 30.83319 104.33126 34284 ft 405 kts 237°
2026-05-08 12:20 30.79851 104.27955 34280 ft 405 kts 237°
2026-05-08 12:20 30.76382 104.22788 34278 ft 405 kts 237°
2026-05-08 12:21 30.72949 104.17647 34239 ft 406 kts 237°
2026-05-08 12:21 30.69492 104.12460 34252 ft 406 kts 237°
2026-05-08 12:22 30.66033 104.07276 34262 ft 406 kts 237°
2026-05-08 12:22 30.62570 104.02099 34276 ft 406 kts 237°
2026-05-08 12:23 30.59633 103.96612 34273 ft 397 kts 253°
2026-05-08 12:23 30.58850 103.90366 34274 ft 393 kts 274°
2026-05-08 12:24 30.60182 103.84190 34270 ft 397 kts 285°
2026-05-08 12:24 30.61892 103.78092 34270 ft 398 kts 285°
2026-05-08 12:25 30.63580 103.72014 34269 ft 398 kts 285°
2026-05-08 12:25 30.65251 103.65864 34268 ft 399 kts 284°
2026-05-08 12:26 30.66761 103.59661 34276 ft 399 kts 283°
2026-05-08 12:26 30.68215 103.53445 34278 ft 399 kts 283°
2026-05-08 12:27 30.69697 103.47229 34347 ft 401 kts 283°
2026-05-08 12:27 30.70454 103.44095 34613 ft 403 kts 283°
2026-05-08 12:27 30.71212 103.40965 34970 ft 401 kts 283°
2026-05-08 12:28 30.71957 103.37893 35343 ft 398 kts 283°
2026-05-08 12:28 30.72713 103.34771 35832 ft 394 kts 282°
2026-05-08 12:28 30.73449 103.31719 36232 ft 391 kts 282°
2026-05-08 12:28 30.74177 103.28689 36335 ft 387 kts 282°
2026-05-08 12:29 30.75605 103.22735 36348 ft 384 kts 282°
2026-05-08 12:29 30.77026 103.16763 36377 ft 383 kts 282°
2026-05-08 12:30 30.78456 103.10799 36376 ft 383 kts 282°
2026-05-08 12:30 30.79877 103.04838 36386 ft 382 kts 282°
2026-05-08 12:31 30.80559 102.98769 36389 ft 379 kts 268°
2026-05-08 12:31 30.80437 102.92636 36383 ft 379 kts 268°
2026-05-08 12:32 30.80355 102.87537 36378 ft 379 kts 268°
2026-05-08 12:32 30.80247 102.80397 36385 ft 380 kts 268°
2026-05-08 12:33 30.80154 102.75252 36379 ft 380 kts 268°
2026-05-08 12:33 30.80038 102.69119 36362 ft 378 kts 268°
2026-05-08 12:34 30.79916 102.62990 36374 ft 380 kts 268°
2026-05-08 12:34 30.79801 102.56874 36357 ft 380 kts 268°
2026-05-08 12:35 30.79678 102.50711 36364 ft 381 kts 268°
2026-05-08 12:35 30.79542 102.44563 36335 ft 379 kts 268°
2026-05-08 12:36 30.79396 102.38403 36333 ft 380 kts 268°
2026-05-08 12:36 30.79266 102.32229 36312 ft 382 kts 268°
2026-05-08 12:37 30.79137 102.26064 36316 ft 383 kts 268°
2026-05-08 12:37 30.78996 102.19867 36313 ft 383 kts 268°
2026-05-08 12:38 30.78849 102.13663 36282 ft 384 kts 268°
2026-05-08 12:38 30.78707 102.07460 36271 ft 381 kts 268°
2026-05-08 12:39 30.78558 102.01261 36261 ft 385 kts 268°
2026-05-08 12:39 30.78401 101.95025 36254 ft 385 kts 268°
2026-05-08 12:40 30.78396 101.88832 36243 ft 387 kts 274°
2026-05-08 12:40 30.78930 101.82601 36253 ft 387 kts 274°
2026-05-08 12:41 30.79455 101.76356 36257 ft 387 kts 274°
2026-05-08 12:41 30.79968 101.70125 36228 ft 386 kts 275°
2026-05-08 12:42 30.80480 101.63906 36235 ft 386 kts 274°
2026-05-08 12:42 30.80987 101.57693 36210 ft 384 kts 274°
2026-05-08 12:43 30.81487 101.51489 36214 ft 386 kts 274°
2026-05-08 12:43 30.81993 101.45287 36179 ft 385 kts 274°
2026-05-08 12:44 30.82493 101.39120 36177 ft 385 kts 273°
2026-05-08 12:44 30.82993 101.32930 36179 ft 385 kts 273°
2026-05-08 12:45 30.83485 101.26719 36167 ft 385 kts 272°
2026-05-08 12:45 30.83968 101.20502 36165 ft 385 kts 273°
2026-05-08 12:46 30.84460 101.14285 36155 ft 386 kts 273°
2026-05-08 12:46 30.84947 101.08104 36144 ft 386 kts 273°
2026-05-08 12:47 30.85422 101.01886 36150 ft 385 kts 273°
2026-05-08 12:47 30.85900 100.95649 36155 ft 388 kts 273°
2026-05-08 12:48 30.86387 100.89393 36155 ft 387 kts 273°
2026-05-08 12:48 30.86867 100.83144 36130 ft 386 kts 274°
2026-05-08 12:49 30.87336 100.76924 36135 ft 387 kts 273°
2026-05-08 12:49 30.87799 100.70668 36138 ft 388 kts 273°
2026-05-08 12:50 30.88263 100.64398 36141 ft 388 kts 273°
2026-05-08 12:50 30.88725 100.58133 36140 ft 388 kts 273°
2026-05-08 12:51 30.89421 100.48752 36109 ft 387 kts 274°
2026-05-08 12:52 30.89878 100.42493 36083 ft 388 kts 273°
2026-05-08 12:52 30.90557 100.33096 36102 ft 390 kts 273°
2026-05-08 12:53 30.91012 100.26793 36099 ft 390 kts 272°
2026-05-08 12:53 30.91457 100.20513 36086 ft 388 kts 272°
2026-05-08 12:54 30.91898 100.14251 36090 ft 387 kts 272°
2026-05-08 12:54 30.92339 100.07999 36098 ft 389 kts 272°
2026-05-08 12:55 30.92774 100.01731 36099 ft 388 kts 272°
2026-05-08 12:55 30.93228 99.95459 36096 ft 388 kts 273°
2026-05-08 12:56 30.93735 99.89202 36094 ft 388 kts 273°
2026-05-08 12:56 30.94246 99.82988 36118 ft 388 kts 273°
2026-05-08 12:57 30.94750 99.76682 36103 ft 389 kts 273°
2026-05-08 12:57 30.95228 99.70452 36096 ft 389 kts 273°
2026-05-08 12:58 30.95713 99.64166 36083 ft 390 kts 273°
2026-05-08 12:58 30.96205 99.57873 36079 ft 390 kts 273°
2026-05-08 12:59 30.96686 99.51574 36078 ft 390 kts 273°
2026-05-08 12:59 30.97161 99.45274 36094 ft 391 kts 273°
2026-05-08 13:00 30.97637 99.38965 36073 ft 391 kts 272°
2026-05-08 13:00 30.98115 99.32650 36063 ft 392 kts 273°
2026-05-08 13:01 30.98587 99.26323 36069 ft 393 kts 273°
2026-05-08 13:01 30.99062 99.19977 36054 ft 393 kts 273°
2026-05-08 13:02 30.99531 99.13623 36063 ft 393 kts 272°
2026-05-08 13:02 30.99989 99.07274 36053 ft 393 kts 272°
2026-05-08 13:03 31.00447 99.00923 36030 ft 394 kts 272°
2026-05-08 13:03 31.00906 98.94551 36033 ft 397 kts 272°
2026-05-08 13:04 31.01369 98.88116 36032 ft 399 kts 273°
2026-05-08 13:04 31.01831 98.81669 36050 ft 400 kts 272°
2026-05-08 13:05 31.02290 98.75212 36047 ft 398 kts 272°
2026-05-08 13:05 31.02740 98.68765 36049 ft 397 kts 272°
2026-05-08 13:06 31.03211 98.62305 36074 ft 402 kts 273°
2026-05-08 13:06 31.03761 98.55824 36072 ft 402 kts 274°
2026-05-08 13:07 31.04321 98.49345 36068 ft 400 kts 273°
2026-05-08 13:07 31.04864 98.42872 36074 ft 401 kts 273°
2026-05-08 13:08 31.05391 98.36410 36074 ft 402 kts 273°
2026-05-08 13:08 31.05920 98.29897 36104 ft 403 kts 273°
2026-05-08 13:09 31.06446 98.23383 36106 ft 403 kts 273°
2026-05-08 13:09 31.06968 98.16879 36117 ft 403 kts 273°
2026-05-08 13:10 31.07482 98.10369 36121 ft 403 kts 273°
2026-05-08 13:10 31.08007 98.03885 36132 ft 403 kts 273°
2026-05-08 13:11 31.08537 97.97370 36122 ft 403 kts 273°
2026-05-08 13:11 31.09064 97.90844 36116 ft 405 kts 273°
2026-05-08 13:12 31.09585 97.84300 36121 ft 406 kts 273°
2026-05-08 13:12 31.10101 97.77743 36117 ft 406 kts 273°
2026-05-08 13:13 31.10615 97.71180 36117 ft 407 kts 273°
2026-05-08 13:13 31.11122 97.64604 36115 ft 406 kts 273°
2026-05-08 13:14 31.11627 97.58081 36123 ft 406 kts 272°
2026-05-08 13:14 31.12134 97.51495 36121 ft 408 kts 273°
2026-05-08 13:15 31.12636 97.44905 36118 ft 408 kts 273°
2026-05-08 13:15 31.13136 97.38306 36120 ft 408 kts 273°
2026-05-08 13:16 31.13636 97.31703 36104 ft 408 kts 273°
2026-05-08 13:16 31.14128 97.25077 36123 ft 409 kts 272°
2026-05-08 13:17 31.14495 97.18456 36128 ft 407 kts 266°
2026-05-08 13:17 31.13459 97.12017 36136 ft 408 kts 256°
2026-05-08 13:18 31.12079 97.05582 36136 ft 409 kts 256°
2026-05-08 13:18 31.10710 96.99152 36135 ft 407 kts 256°
2026-05-08 13:19 31.09572 96.93837 36139 ft 406 kts 256°
2026-05-08 13:19 31.08200 96.87442 36135 ft 406 kts 256°
2026-05-08 13:20 31.06818 96.81039 36160 ft 408 kts 256°
2026-05-08 13:20 31.05420 96.74626 36150 ft 408 kts 256°
2026-05-08 13:21 31.04025 96.68200 36161 ft 409 kts 256°
2026-05-08 13:21 31.02629 96.61765 36162 ft 409 kts 256°
2026-05-08 13:22 31.01220 96.55332 36161 ft 410 kts 256°
2026-05-08 13:22 30.99816 96.48906 36144 ft 408 kts 256°
2026-05-08 13:23 30.98418 96.42513 36140 ft 409 kts 256°
2026-05-08 13:23 30.97029 96.36065 36134 ft 410 kts 256°
2026-05-08 13:24 30.95680 96.29598 36141 ft 411 kts 256°
2026-05-08 13:24 30.94335 96.23165 36154 ft 411 kts 256°
2026-05-08 13:25 30.92960 96.16700 36154 ft 412 kts 256°
2026-05-08 13:25 30.91573 96.10229 36145 ft 411 kts 256°
2026-05-08 13:26 30.90189 96.03763 36141 ft 411 kts 256°
2026-05-08 13:26 30.88799 95.97268 36172 ft 415 kts 256°
2026-05-08 13:27 30.87409 95.90800 36151 ft 411 kts 256°
2026-05-08 13:27 30.86016 95.84335 36157 ft 412 kts 256°
2026-05-08 13:28 30.84615 95.77851 36157 ft 413 kts 256°
2026-05-08 13:28 30.83211 95.71371 36175 ft 412 kts 256°
2026-05-08 13:29 30.81869 95.64901 36194 ft 411 kts 256°
2026-05-08 13:29 30.80561 95.58435 36196 ft 409 kts 256°
2026-05-08 13:30 30.79248 95.51988 36189 ft 409 kts 256°
2026-05-08 13:30 30.77910 95.45544 36196 ft 409 kts 256°
2026-05-08 13:31 30.76569 95.39166 36199 ft 408 kts 256°
2026-05-08 13:31 30.75225 95.32747 36219 ft 409 kts 256°
2026-05-08 13:32 30.73890 95.26314 36252 ft 409 kts 256°
2026-05-08 13:32 30.72541 95.19897 36256 ft 408 kts 256°
2026-05-08 13:33 30.71190 95.13490 36261 ft 408 kts 256°
2026-05-08 13:33 30.69843 95.07080 36256 ft 408 kts 256°
2026-05-08 13:34 30.68504 95.00716 36261 ft 408 kts 256°
2026-05-08 13:34 30.67147 94.94310 36246 ft 408 kts 255°
2026-05-08 13:35 30.65776 94.87898 36218 ft 408 kts 255°
2026-05-08 13:35 30.64409 94.81465 36256 ft 411 kts 255°
2026-05-08 13:36 30.63036 94.75054 36274 ft 412 kts 255°
2026-05-08 13:36 30.61647 94.68592 36273 ft 412 kts 255°
2026-05-08 13:37 30.60257 94.62128 36275 ft 412 kts 255°
2026-05-08 13:37 30.58874 94.55667 36284 ft 412 kts 255°
2026-05-08 13:38 30.57486 94.49221 36281 ft 411 kts 255°
2026-05-08 13:38 30.56099 94.42816 36272 ft 413 kts 255°
2026-05-08 13:39 30.54693 94.36353 36277 ft 413 kts 255°
2026-05-08 13:39 30.53287 94.29876 36319 ft 416 kts 255°
2026-05-08 13:40 30.51870 94.23402 36275 ft 412 kts 254°
2026-05-08 13:40 30.50472 94.16976 36270 ft 412 kts 255°
2026-05-08 13:41 30.49132 94.10520 36266 ft 412 kts 256°
2026-05-08 13:41 30.47808 94.04044 36271 ft 414 kts 255°
2026-05-08 13:42 30.46477 93.97601 36284 ft 415 kts 255°
2026-05-08 13:42 30.45136 93.91148 36251 ft 411 kts 255°
2026-05-08 13:43 30.43775 93.84678 36274 ft 413 kts 255°
2026-05-08 13:43 30.42418 93.78229 36254 ft 412 kts 255°
2026-05-08 13:44 30.41048 93.71767 36235 ft 414 kts 255°
2026-05-08 13:44 30.39680 93.65283 36235 ft 415 kts 255°
2026-05-08 13:45 30.37816 93.58981 36231 ft 414 kts 241°
2026-05-08 13:45 30.34598 93.53421 36201 ft 416 kts 236°
2026-05-08 13:46 30.31291 93.47929 36227 ft 419 kts 236°
2026-05-08 13:46 30.27949 93.42381 36235 ft 420 kts 236°
2026-05-08 13:47 30.24595 93.36832 36249 ft 420 kts 236°
2026-05-08 13:47 30.21260 93.31326 36213 ft 419 kts 235°
2026-05-08 13:48 30.17906 93.25786 36214 ft 419 kts 236°
2026-05-08 13:48 30.14556 93.20261 36208 ft 419 kts 236°
2026-05-08 13:49 30.11202 93.14747 36200 ft 419 kts 236°
2026-05-08 13:49 30.07850 93.09247 36195 ft 418 kts 236°
2026-05-08 13:50 30.04521 93.03790 36193 ft 418 kts 236°
2026-05-08 13:50 30.01173 92.98296 36194 ft 418 kts 236°
2026-05-08 13:51 29.97839 92.92844 36191 ft 416 kts 236°
2026-05-08 13:51 29.94501 92.87396 36196 ft 417 kts 236°
2026-05-08 13:52 29.91146 92.81925 36204 ft 418 kts 236°
2026-05-08 13:52 29.87799 92.76467 36197 ft 416 kts 236°
2026-05-08 13:53 29.84461 92.71026 36203 ft 417 kts 236°
2026-05-08 13:53 29.81128 92.65602 36212 ft 417 kts 236°
2026-05-08 13:54 29.77770 92.60154 36202 ft 416 kts 236°
2026-05-08 13:54 29.74421 92.54738 36218 ft 414 kts 236°
2026-05-08 13:55 29.71085 92.49346 36222 ft 412 kts 236°
2026-05-08 13:56 29.66126 92.41313 36197 ft 412 kts 236°
2026-05-08 13:56 29.62809 92.35943 36192 ft 411 kts 236°
2026-05-08 13:57 29.59481 92.30582 36185 ft 411 kts 236°
2026-05-08 13:57 29.56169 92.25271 36152 ft 410 kts 236°
2026-05-08 13:58 29.52848 92.19928 36141 ft 410 kts 236°
2026-05-08 13:58 29.49532 92.14595 36147 ft 409 kts 236°
2026-05-08 13:59 29.46226 92.09301 36110 ft 407 kts 236°
2026-05-08 13:59 29.43284 92.04597 36113 ft 406 kts 236°
2026-05-08 14:00 29.39986 91.99330 36102 ft 406 kts 236°
2026-05-08 14:00 29.36720 91.94099 35880 ft 406 kts 236°
2026-05-08 14:00 29.35074 91.91467 35621 ft 406 kts 236°
2026-05-08 14:01 29.33424 91.88834 35404 ft 407 kts 236°
2026-05-08 14:01 29.31767 91.86198 35154 ft 409 kts 236°
2026-05-08 14:01 29.30089 91.83534 34408 ft 414 kts 236°
2026-05-08 14:01 29.28405 91.80855 33895 ft 411 kts 236°
2026-05-08 14:02 29.27009 91.78073 33755 ft 397 kts 247°
2026-05-08 14:02 29.26206 91.75077 33495 ft 389 kts 259°
2026-05-08 14:02 29.25992 91.71996 32916 ft 391 kts 270°
2026-05-08 14:02 29.26242 91.68889 32318 ft 393 kts 274°
2026-05-08 14:03 29.26524 91.65779 31667 ft 394 kts 274°
2026-05-08 14:03 29.26800 91.62663 31257 ft 391 kts 274°
2026-05-08 14:03 29.27069 91.59582 30706 ft 387 kts 274°
2026-05-08 14:03 29.27331 91.56513 30095 ft 387 kts 274°
2026-05-08 14:04 29.27589 91.53449 29408 ft 386 kts 274°
2026-05-08 14:04 29.27843 91.50392 28761 ft 385 kts 274°
2026-05-08 14:04 29.28085 91.47348 28158 ft 383 kts 274°
2026-05-08 14:04 29.28310 91.44318 27610 ft 380 kts 273°
2026-05-08 14:05 29.28529 91.41314 27088 ft 377 kts 273°
2026-05-08 14:05 29.28743 91.38365 26504 ft 373 kts 273°
2026-05-08 14:05 29.28954 91.35418 25874 ft 370 kts 273°
2026-05-08 14:05 29.29166 91.32493 25252 ft 367 kts 273°
2026-05-08 14:06 29.29382 91.29593 24634 ft 363 kts 273°
2026-05-08 14:06 29.29596 91.26719 24024 ft 360 kts 273°
2026-05-08 14:06 29.29810 91.23875 23419 ft 357 kts 273°
2026-05-08 14:06 29.30022 91.21052 22724 ft 354 kts 273°
2026-05-08 14:07 29.30227 91.18259 22140 ft 349 kts 273°
2026-05-08 14:07 29.30425 91.15531 21752 ft 338 kts 273°
2026-05-08 14:07 29.30620 91.12869 21318 ft 323 kts 273°
2026-05-08 14:07 29.30805 91.10350 20704 ft 312 kts 272°
2026-05-08 14:08 29.30981 91.07909 20111 ft 303 kts 272°
2026-05-08 14:08 29.31149 91.05572 19683 ft 295 kts 272°
2026-05-08 14:08 29.31316 91.03215 19263 ft 294 kts 272°
2026-05-08 14:08 29.31539 91.00938 18840 ft 281 kts 277°
2026-05-08 14:09 29.31910 90.98790 18477 ft 268 kts 281°
2026-05-08 14:09 29.32400 90.96777 18134 ft 256 kts 285°
2026-05-08 14:09 29.32992 90.94893 17747 ft 246 kts 290°
2026-05-08 14:09 29.33672 90.93175 17577 ft 226 kts 294°
2026-05-08 14:10 29.34390 90.91631 17517 ft 216 kts 297°
2026-05-08 14:10 29.35164 90.90170 17426 ft 214 kts 300°
2026-05-08 14:10 29.36007 90.88767 17333 ft 213 kts 303°
2026-05-08 14:10 29.36867 90.87434 17219 ft 201 kts 298°
2026-05-08 14:11 29.37357 90.85973 16908 ft 193 kts 277°
2026-05-08 14:11 29.37400 90.84471 16624 ft 186 kts 265°
2026-05-08 14:11 29.37308 90.83010 16356 ft 181 kts 263°
2026-05-08 14:11 29.37162 90.81608 16101 ft 178 kts 260°
2026-05-08 14:12 29.36957 90.80212 15851 ft 177 kts 257°
2026-05-08 14:12 29.36694 90.78840 15598 ft 175 kts 254°
2026-05-08 14:12 29.36408 90.77696 15378 ft 175 kts 245°
2026-05-08 14:12 29.35763 90.76527 15123 ft 175 kts 226°
2026-05-08 14:13 29.34798 90.75668 14927 ft 180 kts 208°
2026-05-08 14:13 29.33615 90.75241 14562 ft 178 kts 188°
2026-05-08 14:13 29.32385 90.75301 14333 ft 178 kts 169°
2026-05-08 14:13 29.31247 90.75846 14104 ft 179 kts 148°
2026-05-08 14:14 29.30336 90.76805 13852 ft 179 kts 126°
2026-05-08 14:14 29.29776 90.78054 13638 ft 176 kts 107°
2026-05-08 14:14 29.29622 90.79437 13406 ft 175 kts 89°
2026-05-08 14:14 29.29648 90.80833 13140 ft 176 kts 90°
2026-05-08 14:15 29.29668 90.82211 12820 ft 175 kts 90°
2026-05-08 14:15 29.29688 90.83596 12508 ft 173 kts 90°
2026-05-08 14:15 29.29692 90.84968 12252 ft 171 kts 90°
2026-05-08 14:15 29.29722 90.86324 12058 ft 170 kts 86°
2026-05-08 14:16 29.29754 90.87671 11832 ft 169 kts 89°
2026-05-08 14:16 29.29773 90.89017 11618 ft 168 kts 88°
2026-05-08 14:16 29.29795 90.90305 11544 ft 149 kts 90°
2026-05-08 14:16 29.29809 90.91283 11536 ft 100 kts 89°
2026-05-08 14:17 29.29817 90.91882 11534 ft 54 kts 89°
2026-05-08 14:17 29.29824 90.92285 11532 ft 49 kts 89°
2026-05-08 14:17 29.29830 90.92637 11531 ft 43 kts 88°
2026-05-08 14:17 29.29797 90.92864 11518 ft 19 kts 142°
2026-05-08 14:18 29.29701 90.92921 11526 ft 13 kts 179°
2026-05-08 14:18 29.29667 90.92842 11531 ft 12 kts 269°
2026-05-08 14:18 29.29665 90.92743 11531 ft 12 kts 269°
2026-05-08 14:18 29.29663 90.92626 11531 ft 17 kts 268°
2026-05-08 14:19 29.29659 90.92466 11532 ft 23 kts 271°
2026-05-08 14:19 29.29658 90.92281 11532 ft 23 kts 269°
2026-05-08 14:19 29.29656 90.92102 11533 ft 22 kts 269°
2026-05-08 14:19 29.29653 90.91921 11534 ft 25 kts 270°
2026-05-08 14:20 29.29649 90.91730 11527 ft 24 kts 269°
2026-05-08 14:20 29.29645 90.91543 11533 ft 23 kts 268°
2026-05-08 14:20 29.29644 90.91360 11542 ft 23 kts 268°
2026-05-08 14:20 29.29642 90.91179 11542 ft 23 kts 269°
2026-05-08 14:21 29.29639 90.91001 11542 ft 22 kts 269°
2026-05-08 14:21 29.29636 90.90825 11542 ft 22 kts 269°
2026-05-08 14:21 29.29634 90.90658 11543 ft 20 kts 269°
2026-05-08 14:21 29.29631 90.90488 11543 ft 22 kts 269°
2026-05-08 14:22 29.29628 90.90319 11538 ft 19 kts 269°
2026-05-08 14:22 29.29626 90.90179 11544 ft 17 kts 270°
2026-05-08 14:22 29.29625 90.90046 11539 ft 14 kts 268°
2026-05-08 14:22 29.29573 90.90006 11535 ft 9 kts 181°
2026-05-08 14:23 29.29526 90.89991 11537 ft 6 kts 203°
2026-05-08 14:23 29.29495 90.89984 11538 ft 4 kts 182°
2026-05-08 14:23 29.29463 90.89984 11536 ft 5 kts 180°
2026-05-08 14:23 29.29437 90.89984 11541 ft 2 kts 179°
2026-05-08 14:24 29.29430 90.89984 11541 ft 0 kts 180°